sat.trackr.live / text

‹ back to catalog

HJS-7C

NORAD 65619 · 2025-209C

PAYLOAD ACTIVE UNKNOWN

§ Identity

Operator
Country
PRC
Launch date
2025-09-16
Launch site
JSC
Launch vehicle
Mass (kg)
RCS (m²)

External: N2YO · Heavens-Above · Gunter

§ Orbital elements

Epoch: 2026-09-20T12:05:42.804960Z

Period
107.34 min
Inclination
50.0021°
Eccentricity
0.0001913
Mean motion
13.41474919 rev/d
Perigee alt
1,102.4 km
Apogee alt
1,105.2 km
Semi-major
7,481.9 km
B*
7.3463e-5
RAAN
9.3898°
Arg perigee
79.3070°
Mean anomaly
280.8023°
Rev number
5,043

§ Raw data

HJS-7C1 65619U 25209C   26263.50396765 -.00000087  00000+0  73463-4 0  99972 65619  50.0021   9.3898 0001913  79.3070 280.8023 13.41474919 50432

JSON: /api/v1/satellites/65619 · /tle

For live sub-satellite position, see the globe view (requires WebGL).

§ Visibility from observer

Set your observer location to see the next 7 days of passes ≥ 10°. The values pass through the URL so the page stays shareable.

No JS? Fill the form by hand. The geolocation button needs JavaScript.